Regional Weather Roundup
Issued by NWS Sterling, VA

Home | Current Version | Previous Version | Text Only | Print | Product List | Glossary On
Versions: 1 2 3 4 5 6 7 8 9 10 11 12 13 14 15 16 17 18 19 20 21 22 23 24 25 26 27 28
000
ASUS41 KLWX 240211
RWRLWX

REGIONAL WEATHER ROUNDUP
NATIONAL WEATHER SERVICE BALTIMORE MD/WASHINGTON DC
1000 PM EDT FRI JUN 23 2017

Note: "FAIR" indicates few or no clouds below 12,000 feet
with no significant weather and/or obstructions to visibility.
 TC=TEMPERATURE CELSIUS

 * =Non NWS site. Station does not report precipitation (e.g. rain,
    snow, etc.), thunder, or fog.

DCZ001-MDZ009-015-VAZ040>042-051-053>054-240300-
WASHINGTON METRO

CITY           SKY/WX    TMP DP  RH WIND       PRES   REMARKS
WASHINGTON NAT LGT RAIN  84  75  74 S14       29.71S HX  92
DULLES         MOCLDY    81  71  71 S7        29.71R
ANDREWS AFB    MOCLDY    82  72  73 S13       29.72S
FT BELVOIR     PTCLDY    80  73  79 SE5       29.71S
QUANTICO       MOCLDY    84  76  76 SW8       29.73R HX  93
COLLEGE PARK*  MOCLDY    83  73  69 S5        29.70S
LEESBURG*      CLOUDY   N/A N/A N/A S9        29.72R
MANASSAS*      PTCLDY    81  73  76 S6        29.71S
GAITHERSBURG*  CLOUDY    82  72  71 S9        29.73R

$$

MDZ006>007-011-014-240300-
BALTIMORE METRO

CITY           SKY/WX    TMP DP  RH WIND       PRES   REMARKS
BWI AIRPORT    MOCLDY    83  73  72 SW12      29.70R
MD SCIENCE CTR   N/A     86  73  65 MISG      29.69S HX  93
MARTIN STATE   PTCLDY    84  75  74 S10       29.71R HX  92
ANNAPOLIS      CLOUDY    83  76  79 S6        29.71R HX  91
FORT MEADE*    PTCLDY    79  72  78 SW7       29.73R

$$

MDZ012-015-019>023-240300-
MARYLAND EASTERN SHORE

CITY           SKY/WX    TMP DP  RH WIND       PRES   REMARKS
OCEAN CITY     CLOUDY    79  75  87 SW10      29.78R
SALISBURY      PTCLDY    82  75  79 SW13      29.77R
BAY BRIDGE AP* CLOUDY    82  73  74 SW8       29.71S
CAMBRIDGE*     CLEAR     82  73  74 S8        29.75R
EASTON*        PTCLDY    85  73  68 SW12      29.77R HX  92

$$

MDZ017>025-240300-
SOUTHERN MARYLAND

CITY           SKY/WX    TMP DP  RH WIND       PRES   REMARKS
PATUXENT RIVER MOCLDY    83  72  69 S10       29.74S
ST INIGOES     MOCLDY    84  74  71 S10       29.75R HX  91
LEONARDTOWN*   CLOUDY    82  70  65 S9        29.76S

$$

MDZ003>005-240300-
NORTH CENTRAL MARYLAND

CITY           SKY/WX    TMP DP  RH WIND       PRES   REMARKS
FREDERICK*     NOT AVBL
HAGERSTOWN APT LGT RAIN  77  70  79 CALM      29.70S
WESTMINSTER*   CLEAR     81  73  78 S8        29.70S

$$

MDZ501>502-240300-
WESTERN MARYLAND

CITY           SKY/WX    TMP DP  RH WIND       PRES   REMARKS
OAKLAND*       NOT AVBL
CUMBERLAND*    CLOUDY    73  70  88 E7        29.74R

$$

VAZ025>031-240300-
SHENANDOAH VALLEY

CITY           SKY/WX    TMP DP  RH WIND       PRES   REMARKS
WINCHESTER*    CLOUDY    79  68  69 S3        29.70S
FRONT ROYAL*   CLOUDY    79  70  73 SW5       29.69F
LURAY*         MOCLDY    77  70  78 CALM      29.72S
NEW MARKET*    MOCLDY    80  69  70 SW7       29.70F
STAUNTON*      CLOUDY    77  70  77 S8        29.77F
WAYNESBORO*    PTCLDY    79  70  72 S9G17     29.78S

$$

WVZ021-048>050-054>055-240300-
EASTERN WEST VIRGINIA PANHANDLE

CITY           SKY/WX    TMP DP  RH WIND       PRES   REMARKS
MARTINSBURG    CLOUDY    81  69  67 NE3       29.69R
PETERSBURG*    CLOUDY    81  68  65 SE3       29.70F

$$

VAZ036>039-050-240300-
CENTRAL FOOTHILLS

CITY           SKY/WX    TMP DP  RH WIND       PRES   REMARKS
CHARLOTTESVILL PTCLDY    82  73  74 S15       29.74S
CULPEPER*      CLOUDY    82  74  76 S8        29.72S
ORANGE*        CLOUDY    81  72  74 S9        29.74R
GORDONSVILLE*  PTCLDY    80  73  79 SW9       29.74S
WARRENTON*     CLOUDY    82  70  67 S9        29.71S

$$

VAZ055>057-240300-
NORTH AND CENTRAL PIEDMONT

CITY           SKY/WX    TMP DP  RH WIND       PRES   REMARKS
FREDERICKSBRG* CLOUDY    83  74  72 S7        29.73R HX  90
STAFFORD*      CLOUDY    81  73  76 S8        29.77R

$$

NCZ024-NYZ072-PAZ021-071-VAZ022-071-240300-
OTHER REGIONAL OBSERVATIONS

CITY           SKY/WX    TMP DP  RH WIND       PRES   REMARKS
NEW YORK CITY  CLOUDY    78  75  90 VRB6      29.67S
PHILADELPHIA   PTCLDY    83  72  69 SW21G28   29.68R
PITTSBURGH     LGT RAIN  68  68 100 S3        29.72R
ROANOKE        CLOUDY    82  67  60 SW8       29.80S
RICHMOND       MOCLDY    84  71  65 SW16G22   29.78R
RALEIGH        PTCLDY    83  71  67 S13       29.86S

$$

ANZ530>537-240300-
MARINE OBSERVATIONS

STATION/POSITION TIME  TEMP    WIND        PRES
                       AIR SEA DIR/SP/G
                 (UTC) (F)     (DEG/KT/KT) (MB)
THOMAS PT LIGHT  0200   84 78  210/ 18/ 20   N/A
BALT KEY BRIDGE  0148   84     210/ 11/ 16 1005.0S
COVE POINT       0148   84     210/ 13/ 16 1007.7R
LEWISETTA        0148   85 80  230/ 13/ 15 1007.6R
SOLOMONS ISLAND  0148   83 77  200/ 10/ 13   N/A
PINEY POINT      0148          220/ 13/ 14   N/A

$$





USA.gov is the U.S. government's official web portal to all federal, state and local government web resources and services.